Time,TemperatureF,DewpointF,PressureIn,WindDirection,WindDirectionDegrees,WindSpeedMPH,WindSpeedGustMPH,Humidity,HourlyPrecipIn,Conditions,Clouds,dailyrainin,SoftwareType,DateUTC
2013-03-15 02:06:00,21.3,13.0,30.23,West,277,6.0,17.0,71,0.00,,,0.00,weatherlink.com 1.10,2013-03-15 06:06:00,
2013-03-15 02:21:00,21.1,13.0,30.22,NW,321,5.0,17.0,71,0.00,,,0.00,weatherlink.com 1.10,2013-03-15 06:21:00,
2013-03-15 02:36:00,21.1,13.0,30.21,WNW,295,12.0,20.0,71,0.00,,,0.00,weatherlink.com 1.10,2013-03-15 06:36:00,
2013-03-15 02:51:00,21.0,13.0,30.20,WNW,293,14.0,19.0,71,0.00,,,0.00,weatherlink.com 1.10,2013-03-15 06:51:00,
2013-03-15 03:06:00,21.2,13.0,30.20,WSW,257,6.0,20.0,71,0.00,,,0.00,weatherlink.com 1.10,2013-03-15 07:06:00,
2013-03-15 03:21:00,21.4,13.0,30.21,NW,317,11.0,16.0,71,0.00,,,0.00,weatherlink.com 1.10,2013-03-15 07:21:00,
2013-03-15 03:36:00,21.5,14.0,30.20,WNW,288,8.0,23.0,72,0.00,,,0.00,weatherlink.com 1.10,2013-03-15 07:36:00,
2013-03-15 03:51:00,21.7,14.0,30.21,WNW,299,13.0,18.0,73,0.00,,,0.00,weatherlink.com 1.10,2013-03-15 07:51:00,
2013-03-15 04:06:00,21.7,14.0,30.20,West,277,6.0,17.0,73,0.00,,,0.00,weatherlink.com 1.10,2013-03-15 08:06:00,
2013-03-15 04:21:00,22.1,16.0,30.19,NNW,335,6.0,19.0,77,0.00,,,0.00,weatherlink.com 1.10,2013-03-15 08:21:00,
2013-03-15 04:51:00,22.9,19.0,30.20,NW,306,10.0,18.0,85,0.00,,,0.00,weatherlink.com 1.10,2013-03-15 08:51:00,
2013-03-15 05:21:00,23.0,21.0,30.20,NW,314,12.0,25.0,90,0.00,,,0.00,weatherlink.com 1.10,2013-03-15 09:21:00,
2013-03-15 05:36:00,22.6,20.0,30.19,West,262,10.0,21.0,90,0.00,,,0.00,weatherlink.com 1.10,2013-03-15 09:36:00,
2013-03-15 05:51:00,22.5,20.0,30.20,WNW,288,11.0,23.0,90,0.00,,,0.00,weatherlink.com 1.10,2013-03-15 09:51:00,
2013-03-15 06:06:00,22.8,21.0,30.20,WNW,301,7.0,16.0,91,0.00,,,0.00,weatherlink.com 1.10,2013-03-15 10:06:00,
2013-03-15 06:36:00,24.9,24.0,30.20,West,267,7.0,17.0,95,0.00,,,0.00,weatherlink.com 1.10,2013-03-15 10:36:00,
2013-03-15 06:52:00,26.4,25.0,30.20,NW,314,4.0,13.0,95,0.00,,,0.00,weatherlink.com 1.10,2013-03-15 10:52:00,
2013-03-15 07:07:00,26.9,26.0,30.20,NNW,330,14.0,14.0,96,0.00,,,0.00,weatherlink.com 1.10,2013-03-15 11:07:00,
2013-03-15 07:22:00,27.4,26.0,30.20,NW,323,11.0,19.0,93,0.00,,,0.00,weatherlink.com 1.10,2013-03-15 11:22:00,
2013-03-15 07:37:00,27.6,25.0,30.20,North,360,7.0,17.0,90,0.00,,,0.00,weatherlink.com 1.10,2013-03-15 11:37:00,
2013-03-15 07:52:00,27.7,25.0,30.20,NW,323,4.0,12.0,88,0.00,,,0.00,weatherlink.com 1.10,2013-03-15 11:52:00,
2013-03-15 08:07:00,27.9,24.0,30.20,NNW,337,1.0,11.0,86,0.00,,,0.00,weatherlink.com 1.10,2013-03-15 12:07:00,
2013-03-15 08:22:00,28.4,24.0,30.19,NNW,348,3.0,8.0,84,0.00,,,0.00,weatherlink.com 1.10,2013-03-15 12:22:00,
2013-03-15 08:37:00,29.1,24.0,30.20,NW,314,7.0,12.0,82,0.00,,,0.00,weatherlink.com 1.10,2013-03-15 12:37:00,
2013-03-15 08:52:00,30.5,25.0,30.20,NNE,33,5.0,12.0,79,0.00,,,0.00,weatherlink.com 1.10,2013-03-15 12:52:00,
2013-03-15 09:07:00,31.1,25.0,30.20,NNW,344,4.0,14.0,78,0.00,,,0.00,weatherlink.com 1.10,2013-03-15 13:07:00,
2013-03-15 09:22:00,31.8,26.0,30.20,West,275,3.0,8.0,78,0.00,,,0.00,weatherlink.com 1.10,2013-03-15 13:22:00,
2013-03-15 09:37:00,32.8,29.0,30.19,WNW,283,6.0,12.0,85,0.00,,,0.00,weatherlink.com 1.10,2013-03-15 13:37:00,
2013-03-15 09:52:00,33.3,30.0,30.19,NNE,24,2.0,8.0,89,0.00,,,0.00,weatherlink.com 1.10,2013-03-15 13:52:00,
2013-03-15 10:07:00,34.2,31.0,30.19,NNW,333,7.0,10.0,87,0.00,,,0.00,weatherlink.com 1.10,2013-03-15 14:07:00,
2013-03-15 10:22:00,34.9,29.0,30.19,NNE,19,3.0,8.0,78,0.00,,,0.00,weatherlink.com 1.10,2013-03-15 14:22:00,
2013-03-15 10:37:00,35.7,29.0,30.18,NNE,22,4.0,13.0,75,0.00,,,0.00,weatherlink.com 1.10,2013-03-15 14:37:00,
2013-03-15 10:52:00,36.9,29.0,30.18,NNE,22,7.0,10.0,73,0.00,,,0.00,weatherlink.com 1.10,2013-03-15 14:52:00,
2013-03-15 11:07:00,37.8,30.0,30.17,NE,42,6.0,14.0,73,0.01,,,0.01,weatherlink.com 1.10,2013-03-15 15:07:00,
2013-03-15 11:22:00,39.9,31.0,30.16,NNE,13,3.0,8.0,71,0.01,,,0.01,weatherlink.com 1.10,2013-03-15 15:22:00,
2013-03-15 11:37:00,40.6,31.0,30.16,NNW,338,7.0,12.0,69,0.01,,,0.01,weatherlink.com 1.10,2013-03-15 15:37:00,
2013-03-15 11:52:00,41.1,31.0,30.16,NNE,32,6.0,10.0,68,0.01,,,0.01,weatherlink.com 1.10,2013-03-15 15:52:00,
2013-03-15 12:07:00,42.3,32.0,30.16,North,5,6.0,9.0,66,0.00,,,0.01,weatherlink.com 1.10,2013-03-15 16:07:00,
2013-03-15 12:22:00,43.4,31.0,30.15,NNW,335,6.0,11.0,63,0.00,,,0.01,weatherlink.com 1.10,2013-03-15 16:22:00,
2013-03-15 12:38:00,44.2,32.0,30.14,NNE,31,5.0,11.0,63,0.00,,,0.01,weatherlink.com 1.10,2013-03-15 16:38:00,
2013-03-15 12:53:00,44.5,32.0,30.14,NNE,24,10.0,16.0,62,0.00,,,0.01,weatherlink.com 1.10,2013-03-15 16:53:00,
2013-03-15 13:08:00,45.8,32.0,30.13,East,86,6.0,11.0,60,0.00,,,0.01,weatherlink.com 1.10,2013-03-15 17:08:00,
2013-03-15 13:23:00,46.5,34.0,30.12,NW,321,3.0,8.0,61,0.00,,,0.01,weatherlink.com 1.10,2013-03-15 17:23:00,
2013-03-15 13:38:00,46.8,33.0,30.11,WNW,302,2.0,13.0,59,0.00,,,0.01,weatherlink.com 1.10,2013-03-15 17:38:00,
2013-03-15 13:53:00,47.0,32.0,30.11,North,360,8.0,11.0,56,0.00,,,0.01,weatherlink.com 1.10,2013-03-15 17:53:00,
2013-03-15 14:08:00,47.7,33.0,30.11,NNE,22,5.0,13.0,57,0.00,,,0.01,weatherlink.com 1.10,2013-03-15 18:08:00,
2013-03-15 14:23:00,48.4,33.0,30.10,NNE,26,5.0,11.0,56,0.00,,,0.01,weatherlink.com 1.10,2013-03-15 18:23:00,
2013-03-15 14:38:00,47.5,32.0,30.09,East,92,10.0,26.0,55,0.00,,,0.01,weatherlink.com 1.10,2013-03-15 18:38:00,
2013-03-15 14:53:00,48.5,32.0,30.08,NNE,23,8.0,15.0,53,0.00,,,0.01,weatherlink.com 1.10,2013-03-15 18:53:00,
2013-03-15 15:08:00,48.9,31.0,30.07,North,5,8.0,14.0,51,0.00,,,0.01,weatherlink.com 1.10,2013-03-15 19:08:00,
2013-03-15 15:23:00,49.3,31.0,30.06,NNW,342,6.0,12.0,49,0.00,,,0.01,weatherlink.com 1.10,2013-03-15 19:23:00,
2013-03-15 15:38:00,49.2,29.0,30.05,NE,47,1.0,14.0,46,0.00,,,0.01,weatherlink.com 1.10,2013-03-15 19:38:00,
2013-03-15 15:53:00,49.2,29.0,30.05,NW,315,2.0,11.0,46,0.00,,,0.01,weatherlink.com 1.10,2013-03-15 19:53:00,
2013-03-15 16:08:00,49.4,27.0,30.04,NE,55,2.0,10.0,42,0.00,,,0.01,weatherlink.com 1.10,2013-03-15 20:08:00,
2013-03-15 16:23:00,49.1,26.0,30.04,NE,38,4.0,16.0,40,0.00,,,0.01,weatherlink.com 1.10,2013-03-15 20:23:00,
2013-03-15 16:38:00,48.9,24.0,30.03,NE,38,5.0,16.0,38,0.00,,,0.01,weatherlink.com 1.10,2013-03-15 20:38:00,
2013-03-15 16:53:00,49.6,23.0,30.03,North,5,7.0,13.0,36,0.00,,,0.01,weatherlink.com 1.10,2013-03-15 20:53:00,
2013-03-15 17:08:00,49.4,23.0,30.03,North,5,8.0,18.0,36,0.00,,,0.01,weatherlink.com 1.10,2013-03-15 21:08:00,
2013-03-15 17:23:00,49.3,23.0,30.02,West,266,7.0,11.0,36,0.00,,,0.01,weatherlink.com 1.10,2013-03-15 21:23:00,
2013-03-15 17:38:00,49.4,23.0,30.02,ESE,117,14.0,14.0,36,0.00,,,0.01,weatherlink.com 1.10,2013-03-15 21:38:00,
2013-03-15 17:53:00,48.5,24.0,30.02,West,269,12.0,16.0,39,0.00,,,0.01,weatherlink.com 1.10,2013-03-15 21:53:00,
2013-03-15 18:08:00,47.5,27.0,30.01,NNW,328,5.0,12.0,45,0.00,,,0.01,weatherlink.com 1.10,2013-03-15 22:08:00,
2013-03-15 18:23:00,47.0,30.0,30.01,NW,315,5.0,15.0,51,0.00,,,0.01,weatherlink.com 1.10,2013-03-15 22:23:00,
2013-03-15 18:38:00,46.5,31.0,30.00,NW,307,5.0,8.0,55,0.00,,,0.01,weatherlink.com 1.10,2013-03-15 22:38:00,
2013-03-15 18:53:00,46.0,32.0,30.00,NNW,331,4.0,8.0,58,0.00,,,0.01,weatherlink.com 1.10,2013-03-15 22:53:00,
2013-03-15 19:09:00,45.6,32.0,30.00,ENE,57,8.0,9.0,59,0.00,,,0.01,weatherlink.com 1.10,2013-03-15 23:09:00,
2013-03-15 19:23:00,45.2,32.0,30.00,West,280,2.0,8.0,61,0.00,,,0.01,weatherlink.com 1.10,2013-03-15 23:23:00,
2013-03-15 19:53:00,44.8,33.0,29.99,NNE,19,5.0,6.0,63,0.00,,,0.01,weatherlink.com 1.10,2013-03-15 23:53:00,
2013-03-15 20:08:00,44.6,33.0,29.99,NNE,17,5.0,10.0,65,0.00,,,0.01,weatherlink.com 1.10,2013-03-16 00:08:00,
2013-03-15 20:23:00,44.7,33.0,29.98,NE,40,5.0,7.0,65,0.00,,,0.01,weatherlink.com 1.10,2013-03-16 00:23:00,
2013-03-15 20:38:00,44.6,34.0,29.98,NNE,22,2.0,9.0,67,0.00,,,0.01,weatherlink.com 1.10,2013-03-16 00:38:00,
2013-03-15 20:53:00,44.6,35.0,29.98,NNW,342,4.0,12.0,70,0.00,,,0.01,weatherlink.com 1.10,2013-03-16 00:53:00,
2013-03-15 21:08:00,44.3,35.0,29.98,NNW,344,0.0,9.0,71,0.00,,,0.01,weatherlink.com 1.10,2013-03-16 01:08:00,
2013-03-15 21:23:00,43.8,36.0,29.97,NNW,331,1.0,7.0,73,0.00,,,0.01,weatherlink.com 1.10,2013-03-16 01:23:00,
2013-03-15 21:39:00,43.8,36.0,29.97,NW,305,0.0,7.0,74,0.00,,,0.01,weatherlink.com 1.10,2013-03-16 01:39:00,
2013-03-15 21:54:00,44.6,37.0,29.96,NNE,29,3.0,14.0,74,0.00,,,0.01,weatherlink.com 1.10,2013-03-16 01:54:00,
2013-03-15 22:09:00,45.1,37.0,29.96,NNE,23,6.0,12.0,73,0.00,,,0.01,weatherlink.com 1.10,2013-03-16 02:09:00,
2013-03-15 22:24:00,45.4,37.0,29.95,NE,53,5.0,10.0,73,0.00,,,0.01,weatherlink.com 1.10,2013-03-16 02:24:00,
2013-03-15 22:39:00,45.7,37.0,29.95,NNE,14,4.0,11.0,73,0.00,,,0.01,weatherlink.com 1.10,2013-03-16 02:39:00,
2013-03-15 22:54:00,45.8,38.0,29.95,NNE,17,1.0,10.0,73,0.00,,,0.01,weatherlink.com 1.10,2013-03-16 02:54:00,
2013-03-15 23:09:00,45.9,38.0,29.95,North,349,7.0,10.0,73,0.00,,,0.01,weatherlink.com 1.10,2013-03-16 03:09:00,
2013-03-15 23:24:00,45.9,38.0,29.94,NNW,336,6.0,7.0,74,0.00,,,0.01,weatherlink.com 1.10,2013-03-16 03:24:00,
2013-03-15 23:39:00,45.8,38.0,29.93,ENE,61,7.0,9.0,74,0.00,,,0.01,weatherlink.com 1.10,2013-03-16 03:39:00,
2013-03-15 23:54:00,45.9,38.0,29.93,NE,50,6.0,7.0,75,0.00,,,0.01,weatherlink.com 1.10,2013-03-16 03:54:00,